Flag for U.S.A. Weather past 2 weeks in Babylon, New York, U.S.A.

Now
32 °F

Overcast.


Feels Like: 27 °F
Forecast: 31 / 35 °F
Wind: 5 mph from West

Location: Republic Airport

Current Time: Dec 20, 2014 at 3:34:15 PM

Latest Report: Dec 20, 2014 at 2:53 PM


Visibility: 10 mi

Pressure: 30.26 "Hg

Humidity: 64%

Dew point: 21 °F

Location of BabylonLocation

Historic Weather in Babylon — Graph

°F

Babylon temperature yesterday

Maximum temperature yesterday: 39 °F (at 1:53 PM)
Minimum temperature yesterday: 31 °F (at 11:53 PM)
Average temperature yesterday: 36 °F

Past Weeks' High & Low Weather Summary

 TemperatureHumidityPressure
High53 °F (Dec 17, 12:53 PM)97% (Dec 6, 8:53 AM)30.67 "Hg (Dec 6, 8:53 AM)
Low26 °F (Dec 8, 2:53 AM)34% (Dec 7, 1:53 PM)29.55 "Hg (Dec 10, 2:53 PM)
Average39 °F71%30.02 "Hg
* Reported Dec 5 1:53 PM — Dec 20 1:53 PM, Babylon, Weather by CustomWeather, © 2014

Note: Actual official high and low records may vary slightly from our data, if they occured in-between our weather recording intervals... More about our weather records

Advertising

Babylon weather history for previous 24 hours

 ConditionsComfort  
Time TempWeatherWind HumidityBarometerVisibility
1:53 PM
Dec 20
32 °FOvercast.5 mph64%30.26 "Hg10 mi
12:53 PM32 °FOvercast.3 mph64%30.26 "Hg10 mi
11:53 AM32 °FOvercast.7 mph64%30.28 "Hg10 mi
10:53 AM32 °FOvercast.6 mph64%30.29 "Hg10 mi
9:53 AM32 °FOvercast.6 mph64%30.30 "Hg10 mi
8:53 AM32 °FOvercast.5 mph64%30.28 "Hg10 mi
7:53 AM31 °FOvercast.8 mph67%30.26 "Hg10 mi
6:53 AM31 °FOvercast.6 mph67%30.27 "Hg10 mi
5:53 AM31 °FOvercast.7 mph67%30.25 "Hg10 mi
4:53 AM32 °FOvercast.5 mph64%30.23 "Hg10 mi
3:53 AM32 °FOvercast.7 mph64%30.21 "Hg10 mi
2:53 AM31 °FOvercast.7 mph67%30.19 "Hg10 mi
1:53 AM31 °FMostly cloudy.8 mph67%30.19 "Hg10 mi
12:53 AM31 °FClear.5 mph64%30.19 "Hg10 mi
11:53 PM
Dec 19
31 °FClear.5 mph64%30.19 "Hg10 mi
10:53 PM32 °FClear.7 mph61%30.17 "Hg10 mi
9:53 PM32 °FClear.7 mph64%30.16 "Hg10 mi
8:53 PM34 °FOvercast.7 mph59%30.13 "Hg10 mi
7:53 PM35 °FOvercast.9 mph56%30.14 "Hg10 mi
6:53 PM35 °FOvercast.12 mph56%30.13 "Hg10 mi
5:53 PM35 °FOvercast.9 mph56%30.10 "Hg10 mi
4:53 PM36 °FPassing clouds.12 mph54%30.07 "Hg10 mi
3:53 PM38 °FSunny.10 mph51%30.05 "Hg10 mi
Weather by CustomWeather, © 2014

See weather overviewHow to use our weather pages